Reflectivity
-20 -20 -20 -20 -20 -20 -20 -20 -20 -20 -20 -20 -20 -20 -20 -20 -20 -20 -20 -20 -20 -20 -20 -20 -20 -20 -20 -20 -20 -15 -20 -20 -20 -20 -20 -20 -20 -20 -20 -20 -20 -20 -20 -20 -20
-20 -20 -20 -20 -20 -20 -20 -20 -20 -20 -20 -20 -20 -20 -20 -20 -20 -20 -20 -20 -20 -20 -20 -20 -20 -20 -20 -20 -20 -20 -20 -20 -20 -20 -20 -20 -20 -20 -20 -20 -20 -20 -20 -20 -20
-20 -20 -20 -20 -20 -20 -20 -20 -20 -20 -20 -20 -20 -20 -20 -20 -20 -20 -20 -20 -20 -20 -20 -20 -20 -20 -20 -20 -20 -20 -20 -20 -20 -20 -20 -20 -20 -20 -20 -20 -20 -20 -20 -20 -20
-20 -20 -20 -20 -20 -20 -20 -20 -20 -20 -20 -20 -20 -20 -20 -20 -20 -20 -20 -20 -20 -20 -20 -20 -20 -20 -20 -20 -20 -20 -20 -20 -20 -16 -20 -20 -20 -20 -20 -20 -20 -20 -20 -20 -20
-20 -20 -20 -20 -20 -20 -20 -20 -20 -20 -20 -20 -20 -20 -20 -20 -20 -20 -20 -20 -20 -20 -20 -20 -20 -20 -20 -20 -20 -20 -20 -20 -20 -19 -20 -20 -20 -20 -20 -20 -20 -20 -20 -20 -20
-20 -20 -20 -20 -20 -20 -20 -20 -20 -20 -20 -20 -20 -20 -20 -20 -20 -20 -20 -20 -20 -20 -20 -20 -20 -20 -20 -20 -20 -20 -20 -20 -20 -20 -20 -20 -20 -20 -20 -20 -20 -20 -20 -20 -20
-20 -20 -20 -20 -20 -20 -20 -20 -20 -20 -20 -20 -20 -20 -20 -20 -20 -20 -20 -20 -20 -20 -20 -20 -20 -20 -20 -20 -20 -20 -20 -20 -20 -20 -20 -20 -20 -20 -20 -20 -20 -20 -20 -20 -20
-20 -20 -20 -20 -20 -20 -20 -20 -20 -20 -20 -20 -20 -20 -20 -20 -20 -20 -20 -20 -20 -20 -20 -20 -20 -20 -20 -20 -20 -20 -20 -20 -20 -20 -20 -20 -20 -20 -20 -20 -20 -20 -20 -20 -20
-20 -20 -20 -20 -20 -20 -20 -20 -20 -20 -20 -20 -20 -20 -20 -20 -20 -20 -20 -20 -20 -20 -20 -20 -20 -20 -20 -20 -20 -20 -20 -20 -20 -20 -20 -20 -20 -20 -20 -20 -20 -20 -20 -20 -20
-20 -20 -20 -20 -20 -20 -20 -20 -20 -20 -20 -20 -20 -20 -20 -20 -20 -20 -20 -20 -20 -20 -20 -20 -20 -20 -20 -20 -20 -20 -20 -20 -20 -20 -20 -20 -20 -20 -20 -20 -20 -20 -20 -20 -20
-20 -20 -20 -20 -20 -20 -20 -20 -20 -20 -20 -20 -20 -20 -20 -20 -20 -20 -20 -20 -20 -20 -20 -20 -20 -20 -20 -20 -20 -20 -20 -20 -20 -20 -20 -20 -20 -20 -20 -20 -20 -20 -20 -20 -20
-20 -20 -20 -20 -20 -20 -20 -20 -20 -20 -20 -20 -20 -20 -20 -20 -20 -20 -20 -20 -20 -20 -20 -20 -20 -20 -20 -20 -20 -20 -20 -20 -20 -20 -20 -20 -20 -20 -20 -20 -20 -20 -20 -20 -20
-20 -20 -20 -20 -20 -20 -20 -20 -20 -20 -20 -20 -20 -20 -20 -20 -20 -20 -20 -20 -20 -20 -20 -20 -20 -20 -20 -20 -20 -20 -20 -20 -20 -20 -20 -20 -20 -20 -20 -20 -20 -20 -20 -20 -20
-20 -20 -20 -20 -20 -20 -20 -20 -20 -20 -20 -20 -20 -20 -20 -20 -20 -20 -20 -20 -20 -20 -20 -20 -20 -20 -20 -20 -20 -20 -20 -20 -20 -20 -20 -20 -20 -20 -20 -20 -20 -20 -20 -20 -20
-20 -20 -20 -20 -20 -20 -20 -20 -20 -20 -20 -20 -20 -20 -20 -20 -20 -20 -20 -20 -20 -20 -20 -20 -20 -20 -20 -20 -20 -20 -20 -20 -20 -20 -20 -20 -20 -20 -20 -20 -20 -20 -20 -20 -20
-20 -20 -20 -20 -20 -20 -20 -20 -20 -20 -20 -20 -20 -20 -20 -20 -20 -20 -20 -20 -20 -20 -20 -20 -20 -20 -20 -20 -20 -20 -20 -20 -20 -20 -20 -20 -20 -20 -20 -20 -20 -20 -20 -20 -20
-20 -20 -20 -20 -20 -20 -20 -20 -20 -20 -20 -20 -20 -20 -20 -20 -20 -20 -20 -20 -20 -20 -20 -20 -20 -20 -20 -20 -20 -20 -20 -20 -20 -20 -20 -20 -20 -20 -20 -20 -20 -20 -20 -20 -20
-20 -20 -20 -20 -20 -20 -20 -20 -20 -20 -20 -20 -20 -20 -20 -20 -20 -20 -20 -20 -20 -20 -20 -20 -20 -20 -20 -20 -20 -20 -20 -20 -20 -20 -20 -20 -20 -20 -20 -20 -20 -20 -20 -20 -20
-20 -20 -20 -20 -20 -20 -20 -20 -20 -20 -20 -20 -20 -20 -20 -20 -20 -20 -20 -20 -20 -20 -20 -20 -20 -20 -20 -20 -20 -20 -20 -20 -20 -20 -20 -20 -20 -20 -20 -20 -20 -20 -20 -20 -20
-20 -20 -20 -20 -20 -20 -20 -20 -20 -20 -20 -20 -20 -20 -20 -20 -20 -20 -20 -20 -20 -20 -20 -20 -20 -20 -20 -20 -20 -20 -20 -20 -20 -20 -20 -20 -20 -20 -20 -20 -20 -20 -20 -20 -20
-20 -20 -20 -20 -20 -20 -20 -20 -20 -20 -20 -20 -20 -20 -20 -20 -20 -20 -20 -20 -20 -20 -20 -20 -20 -20 -20 -20 -20 -20 -20 -20 -20 -20 -20 -20 -20 -20 -20 -20 -20 -20 -20 -20 -20
-20 -20 -20 -20 -20 -20 -20 -20 -20 -20 -20 -20 -20 -20 -20 -20 -20 -20 -20 -20 -20 -20 -20 -20 -20 -20 -20 -20 -20 -20 -20 -20 -20 -20 -20 -20 -20 -20 -20 -20 -20 -20 -20 -20 -20
-20 -20 -20 -20 -20 -20 -20 -20 -17 -20 -20 -20 -20 -20 -20 -20 -20 -20 -20 -20 -20 -20 -20 -20 -20 -20 -20 -20 -20 -20 -20 -20 -20 -20 -20 -20 -20 -20 -20 -20 -20 -20 -20 -20 -20
-20 -20 -20 -20 -20 -20 -20 -20 -15 6 -20 -20 -20 -20 -20 -20 -20 -20 -20 -20 -20 -20 -20 -20 -20 -20 -20 -20 -20 -20 -20 -20 -20 -20 -20 -20 -20 -20 -20 -20 -20 -20 -20 -20 -20
-20 -20 -20 -20 -18 -20 -20 -20 -20 8 -16 8 -20 -20 -20 -20 -20 -20 -20 -20 -20 -20 -20 -20 -20 -20 -20 -20 -20 -20 -20 -20 -20 -20 -20 -20 -20 -20 -20 -20 -20 -20 -20 -20 -20
-0 -7 -10 -20 -20 -20 -20 -20 -1 3 2 14 -17 -20 -20 -20 -20 -20 -20 -20 -20 -20 -20 -20 -20 -20 -20 -20 -20 -20 -20 -20 -20 -20 -20 -20 -20 -20 -20 -20 -20 -20 -20 -20 -20
-20 -20 2 13 -0 -10 -20 -11 -20 -20 14 12 2 -20 -20 -20 -20 -20 -20 -20 -20 -20 -20 -20 -20 -20 -20 -20 -20 -20 -20 -20 -20 -20 -20 -20 -20 -20 -20 -20 -20 -20 -20 -20 -20
Wind_Speed
20 20 20 20 20 19 19 19 18 18 18 18 19 18 18 17 18 3 9 14 13 23 18 15 12 13 14 7 6 2 2 4 5 6 4 6 8 10 5 13 6 6 8 16 20
21 21 21 21 21 21 20 20 20 19 18 19 19 19 17 16 4 10 20 13 17 24 15 18 13 16 6 7 5 5 2 6 6 5 11 17 15 17 7 15 2 7 15 20 20
22 22 22 22 22 22 21 21 21 21 18 17 18 18 16 12 5 10 4 18 21 22 12 14 14 13 6 4 6 6 7 7 15 4 17 20 17 11 15 11 9 25 24 23 22
23 23 23 24 24 23 22 22 22 21 20 17 16 16 16 3 6 1 10 14 20 15 10 9 6 8 8 13 10 7 12 12 17 13 17 23 17 7 20 9 19 27 27 26 20
23 24 24 24 25 25 25 24 22 22 21 18 14 12 4 2 15 8 11 14 14 11 12 9 7 9 8 6 8 14 14 6 17 9 19 18 22 16 24 9 21 20 22 24 20
24 24 24 25 25 26 25 24 23 23 21 19 12 5 3 9 6 8 5 13 11 9 7 8 9 8 4 6 8 7 11 7 8 13 15 18 14 10 18 18 20 24 23 20 22
24 25 25 26 27 28 28 26 26 27 23 17 10 6 3 21 3 3 8 6 7 10 8 7 7 9 6 5 3 4 4 4 6 7 13 22 10 17 16 21 24 24 22 21 20
23 25 26 26 28 29 30 29 28 29 19 7 13 6 11 7 7 13 8 3 7 5 5 7 8 7 4 3 7 3 2 2 1 3 5 20 18 13 23 24 23 23 21 21 20
25 26 27 28 29 31 32 33 27 11 7 17 9 4 12 4 3 10 8 8 8 4 4 5 7 6 3 5 4 4 4 5 9 6 6 7 4 11 24 22 22 22 21 20 18
25 27 28 29 31 33 34 26 6 2 6 7 2 1 5 5 4 5 7 10 6 5 2 6 4 4 2 5 8 5 4 4 6 5 8 2 2 19 22 23 24 22 20 19 19
25 27 29 30 31 32 17 5 5 3 2 7 6 6 7 6 5 4 5 9 2 6 8 7 6 9 9 6 5 3 3 5 6 3 2 9 8 21 24 17 19 19 20 20 22
25 26 28 30 33 29 3 5 7 3 16 17 24 23 25 5 6 5 11 9 8 9 6 3 15 9 8 8 8 7 7 12 15 9 8 7 11 23 25 28 28 24 23 23 21
25 26 27 28 36 4 5 4 4 4 6 9 9 9 8 19 12 13 9 8 6 10 9 11 7 10 9 7 8 6 10 11 10 4 2 4 3 12 21 10 14 18 22 23 23
26 26 25 29 6 8 6 5 7 3 4 11 6 8 6 9 10 15 11 11 5 18 8 7 10 10 9 8 10 9 7 9 5 4 4 3 5 5 14 20 17 18 21 21 23
26 28 26 13 6 5 7 14 14 2 7 3 4 2 7 11 3 11 9 5 11 8 9 10 13 16 11 17 8 11 4 8 3 5 0 5 1 8 16 17 18 21 22 22 23
26 26 25 2 2 11 12 14 2 4 12 6 3 3 5 6 5 6 13 3 6 5 4 13 5 14 11 9 13 4 2 5 3 3 6 17 9 11 8 19 21 20 23 25 24
27 28 21 5 6 3 9 5 4 7 5 4 5 5 4 5 5 5 16 17 11 13 15 6 20 5 6 8 6 6 8 3 4 5 11 9 6 14 9 19 28 27 27 28 25
26 31 4 7 5 3 3 4 6 4 6 5 6 9 4 10 4 5 13 18 15 4 7 9 7 15 6 11 12 8 12 8 9 5 8 6 10 9 17 12 21 26 26 22 23
24 5 5 5 5 3 3 4 8 5 4 9 7 7 6 6 7 9 7 13 15 10 10 10 11 4 15 7 16 8 11 13 2 3 2 6 8 5 8 10 10 17 19 22 22
7 5 6 6 0 4 5 5 5 3 6 5 4 4 5 8 8 9 6 4 9 5 4 8 3 7 11 8 9 16 10 4 2 12 14 6 7 7 6 12 9 11 13 17 19
4 6 6 8 3 4 3 7 6 10 5 6 3 4 2 4 4 3 5 5 13 12 10 3 4 7 6 9 16 4 13 4 7 8 10 9 11 9 11 10 12 12 14 17 16
3 5 5 7 7 4 5 14 12 10 9 4 3 4 3 5 3 2 6 5 13 7 6 6 3 14 17 8 19 19 16 9 7 13 6 7 13 4 16 15 11 11 11 14 21
4 4 6 4 5 5 7 8 14 14 7 6 5 5 6 2 3 3 6 6 15 11 6 8 4 2 6 4 3 11 12 14 10 4 21 9 7 6 8 8 9 10 9 12 11
3 5 5 5 2 4 6 5 11 16 7 10 3 3 4 4 5 4 5 4 13 7 11 2 3 4 5 5 4 7 11 20 17 11 16 20 8 5 8 10 10 9 9 10 9
1 4 1 5 5 6 6 5 6 9 8 11 5 7 4 2 2 2 1 8 10 7 6 5 3 3 5 13 14 15 13 25 20 22 16 17 13 14 11 12 11 11 5 7 9
2 2 2 4 3 5 6 5 5 5 4 5 8 12 2 4 4 4 5 2 5 6 6 3 4 6 6 9 10 15 20 26 24 23 18 17 8 10 14 9 6 11 10 10 9
2 3 1 3 3 3 3 2 9 14 6 10 7 11 5 3 5 10 12 11 7 3 3 2 1 6 6 8 11 13 24 20 23 14 18 19 9 9 10 11 12 13 11 11 11
Wind_Direction
349 348 346 343 339 337 334 331 330 329 327 325 323 321 323 322 314 174 238 212 177 158 152 155 170 159 163 190 201 158 268 270 196 168 208 162 175 150 148 139 172 191 149 153 159
346 344 342 339 336 333 331 328 326 325 324 323 321 320 323 327 290 247 243 192 168 155 145 167 180 169 185 199 195 186 217 240 182 147 172 164 178 170 143 158 84 98 125 151 157
343 341 339 336 333 330 327 324 321 320 319 318 318 319 321 324 307 248 219 201 171 171 167 163 165 174 199 201 203 202 226 261 276 232 164 168 181 184 153 179 185 154 153 161 160
344 340 337 334 331 327 323 320 317 315 313 313 314 317 316 251 278 257 28 136 152 164 144 161 169 170 176 213 205 260 237 240 276 306 164 179 175 188 179 194 166 163 160 162 168
341 337 333 330 329 326 322 316 313 309 307 307 308 313 344 224 246 277 76 111 138 158 168 164 159 184 191 205 199 221 249 226 255 253 185 173 186 182 202 139 153 157 163 171 171
335 333 330 327 326 325 320 316 309 306 303 298 293 288 182 242 231 234 226 150 156 159 172 155 189 198 240 228 188 205 222 240 247 267 170 172 190 154 204 149 158 162 172 178 178
333 331 329 327 326 323 319 314 312 307 300 283 249 197 216 236 227 147 126 158 173 177 158 194 187 181 181 292 259 258 280 309 232 234 168 175 196 204 172 161 165 174 174 182 189
333 330 328 326 324 320 318 316 312 307 300 231 178 169 245 242 260 261 255 278 190 212 209 173 177 193 210 299 349 266 92 334 337 256 209 161 203 207 160 164 174 177 177 185 193
333 331 328 327 324 320 319 314 311 310 93 134 133 174 263 270 205 242 167 204 154 162 220 202 123 200 176 155 354 344 223 224 313 218 151 172 162 167 167 175 176 181 182 188 191
331 329 328 328 325 323 321 312 287 108 126 173 180 331 253 228 201 202 190 179 153 155 163 188 173 168 100 132 205 203 214 229 229 296 176 161 209 163 177 178 182 183 187 189 197
331 329 328 328 326 325 331 353 10 345 248 227 201 260 287 273 286 219 170 126 114 139 168 173 180 207 206 186 198 184 250 254 252 261 94 226 173 179 185 193 186 188 190 195 203
333 330 328 328 324 324 324 46 73 301 293 245 247 241 248 62 310 252 137 136 150 192 161 155 219 195 197 189 208 220 229 259 296 175 183 203 213 194 182 198 191 186 193 199 206
332 331 330 333 321 4 311 222 41 340 254 273 216 236 207 183 215 253 168 151 148 180 197 205 226 167 178 191 189 219 207 241 232 359 324 101 337 164 208 214 199 204 200 200 200
332 330 333 341 7 333 286 310 334 273 314 276 239 255 148 130 231 214 188 166 166 198 156 221 230 188 195 209 181 235 199 251 265 56 245 132 270 203 188 214 203 207 207 204 207
329 326 327 334 274 312 290 329 323 101 316 234 180 98 156 177 150 210 166 158 178 169 146 224 186 201 209 214 160 243 198 224 183 203 114 229 235 253 172 208 218 209 212 210 208
324 320 323 8 234 249 304 302 359 49 247 300 84 76 121 282 292 99 175 141 146 156 202 212 217 191 196 196 200 166 283 340 49 142 245 248 166 254 180 203 211 214 212 211 208
322 316 317 282 247 284 336 346 65 203 328 355 348 342 303 209 244 176 173 187 170 188 217 174 230 202 148 174 193 127 115 273 295 194 240 205 202 228 215 207 204 204 210 210 206
321 308 320 247 255 277 336 63 207 232 269 13 330 298 64 359 9 323 177 189 218 133 170 179 238 199 170 183 191 192 180 166 198 192 243 170 221 239 213 215 214 212 213 208 205
324 307 323 275 299 105 70 198 204 207 9 346 331 41 352 3 13 16 8 217 200 175 176 179 237 200 195 180 174 192 193 204 142 206 22 228 275 286 202 238 206 215 218 209 206
321 329 286 288 80 76 58 272 274 334 4 360 20 21 349 345 9 25 342 338 350 347 246 212 225 214 205 180 217 193 165 187 350 221 244 248 238 228 193 228 237 223 201 209 212
4 343 261 327 80 65 194 244 301 305 8 352 332 314 300 317 15 25 281 28 3 347 339 276 244 229 151 186 197 192 211 185 157 177 224 246 258 179 204 214 202 223 212 213 213
1 330 299 4 47 17 6 314 307 307 21 309 296 278 285 21 320 248 244 30 17 346 21 333 274 241 221 220 206 206 210 165 189 226 261 240 235 308 190 203 202 224 210 221 222
311 267 307 60 57 2 317 314 349 10 330 2 332 37 18 327 319 68 321 46 17 19 15 340 309 270 313 310 313 216 194 194 217 152 230 221 240 228 172 206 217 224 240 249 228
349 329 326 26 114 349 344 314 350 331 314 359 299 26 9 18 25 328 306 353 336 330 353 46 283 218 260 271 325 208 228 210 203 223 233 232 236 231 225 215 235 213 232 243 219
45 268 220 322 345 325 323 279 357 355 335 337 358 26 32 299 302 185 31 330 327 2 14 76 269 269 301 293 281 263 258 225 215 219 211 232 209 231 222 202 213 227 207 220 220
274 290 48 267 285 315 313 351 7 345 333 296 338 331 246 211 232 309 343 203 248 315 3 17 281 350 284 264 290 273 257 251 224 217 227 235 215 204 227 227 234 224 232 210 212
297 270 210 270 277 274 251 321 316 318 267 270 311 312 292 264 304 261 242 239 229 188 305 278 113 5 286 310 320 276 237 250 243 215 190 218 191 193 239 232 226 233 224 225 225